Tracking 29892 objects as of 21-Nov-2024
HD Live streaming from Space Station
objects crossing your sky now

STARLINK-2354

Track STARLINK-2354 now!
10-day predictions
STARLINK-2354 is classified as:


NORAD ID: 47894
Int'l Code: 2021-021AL
Perigee: 552.1 km
Apogee: 556.6 km
Inclination: 53.1 °
Period: 95.6 minutes
Semi major axis: 6925 km
RCS: Unknown
Launch date: March 14, 2021
Source: United States (US)
Launch site: AIR FORCE EASTERN TEST RANGE (AFETR)
Your satellite tracking list
Your tracking list is empty




NASA's NSSDC Master Catalog

Two Line Element Set (TLE):
1 47894U 21021AL  24325.78300242  .00009030  00000-0  62411-3 0  9999
2 47894  53.0539 239.0638 0003229 104.0949 256.0399 15.06411100204710
Source of the keplerian elements: AFSPC